Location: Barcelona
(41.3830°N, 2.1830°E)
Time: 08:46:23
(UTC+02:00)

ISS - Pass Details

Date: 19 July 2017
Orbit: 400 x 408 km, 51.6° (Epoch: 21 July)

Event Time Altitude Azimuth Distance (km) Brightness Sun altitude
Exits shadow 02:10:58 18° 19° (NNE) 1,058 -1.0 -27.7°
Drops below altitude 10° 02:12:14 10° 37° (NE) 1,455 -0.3 -27.7°
Sets 02:14:32 0° 50° (NE) 2,317 0.6 -27.6°
